Theta_e
304 304 303 303 303 303 302 302 302 302 302 302 305 310 312 313 313 313 314 314 315 315 314 315 316 317 319 321 322 322 322 322 322 322 323 323 323 323 324 324 324 324 324 324 325 326 327 327 326 327 327 327 328 327 327 327 327 327 326 327 328 328 328 326 325 324 323 324 322 318 315 316 316 317
305 304 304 304 304 303 302 302 302 301 301 301 303 308 311 312 313 313 314 314 314 315 314 314 315 316 319 321 321 321 321 321 320 320 321 320 320 320 322 323 323 323 324 325 325 326 327 327 327 326 327 327 327 327 327 327 327 327 327 327 327 328 328 327 325 323 322 323 323 320 317 316 316 316
304 305 305 304 304 303 303 304 303 302 302 301 302 306 309 311 312 313 313 313 313 314 315 316 315 314 315 316 316 316 317 317 316 315 315 316 316 316 315 317 318 319 320 323 325 326 326 326 326 326 326 326 327 327 327 327 327 327 327 327 327 328 328 328 327 324 323 322 322 322 320 319 317 316
304 305 305 305 304 303 303 305 304 304 304 303 303 305 307 309 310 311 312 313 313 313 313 314 313 313 314 314 312 311 312 313 314 315 316 318 319 318 316 317 318 318 316 317 319 322 323 324 324 324 325 325 326 326 326 326 327 327 327 327 328 328 328 328 328 327 325 323 322 321 320 320 319 316
304 304 305 305 304 303 303 303 304 306 308 307 306 308 309 309 309 310 310 311 311 312 312 312 313 313 313 313 312 312 313 314 315 316 317 318 319 319 319 320 320 319 318 316 316 317 318 320 319 319 320 322 323 325 326 326 326 326 327 327 328 328 328 328 328 328 327 325 323 322 320 319 319 317
305 304 304 305 304 303 302 301 303 306 307 307 307 307 309 309 308 308 309 309 309 309 309 309 310 311 311 311 312 313 313 313 313 313 313 313 315 316 317 318 318 317 318 320 318 315 314 317 318 318 316 317 318 320 322 324 326 327 327 327 327 327 328 328 328 328 328 326 325 324 321 320 320 319
305 304 304 304 304 303 302 301 303 304 305 306 307 306 307 307 307 308 309 309 308 308 308 308 309 310 310 310 311 311 311 312 311 311 311 311 312 313 313 314 315 316 317 318 317 315 313 313 315 317 317 317 316 316 317 318 321 324 326 327 327 327 327 327 328 327 328 328 326 326 324 322 321 320
305 304 304 304 304 303 302 301 303 305 306 307 306 305 305 306 306 307 309 309 309 309 309 309 308 308 309 309 309 309 310 310 310 310 311 311 312 313 313 313 314 315 316 317 317 317 315 312 310 312 314 316 317 317 316 315 316 318 322 324 325 326 326 327 327 327 327 328 327 326 325 324 322 321
305 304 303 304 303 302 302 301 303 305 305 303 303 304 304 305 305 305 306 307 307 308 308 308 307 307 308 308 309 309 309 309 309 310 310 310 311 312 313 313 314 314 315 316 316 317 316 313 309 308 309 312 316 318 318 317 315 315 317 321 323 324 325 326 326 327 327 328 328 327 326 325 323 322
305 304 303 303 302 301 300 300 301 301 300 300 300 302 302 303 303 303 304 304 305 305 306 306 306 307 307 308 308 309 309 309 310 310 309 309 310 310 311 313 314 314 314 315 316 316 316 314 312 309 307 308 314 319 320 318 317 317 317 319 321 323 324 325 326 327 327 328 328 328 326 325 325 323
304 303 303 302 301 300 300 299 299 299 298 298 299 301 302 303 304 304 305 305 305 305 305 306 306 306 306 307 307 308 308 309 309 310 310 310 311 312 314 315 316 317 317 317 317 318 318 318 315 312 309 308 311 316 320 320 319 318 318 318 319 321 322 324 325 327 328 328 328 328 327 325 325 324
304 303 302 301 301 300 300 299 298 297 297 296 296 298 299 299 300 302 303 304 305 305 305 306 306 306 306 307 307 307 307 308 309 310 311 312 312 312 312 311 311 313 315 317 318 318 319 319 318 316 314 311 310 312 318 321 321 319 319 318 318 318 319 321 323 325 327 328 328 328 328 326 325 325
304 302 302 301 301 300 300 298 297 296 295 295 294 295 294 295 296 298 300 302 303 304 305 305 305 306 306 306 307 307 308 308 309 309 310 310 310 311 311 309 308 310 311 313 315 317 318 319 319 319 318 317 314 313 316 319 321 321 320 319 318 318 318 319 320 323 325 327 328 328 327 327 325 324
303 302 301 301 300 300 299 298 296 296 295 294 294 294 294 294 294 295 296 297 299 301 302 303 304 304 304 305 306 306 307 307 307 308 308 308 309 310 310 310 310 311 311 313 314 315 316 317 318 318 318 318 318 318 318 318 318 319 320 320 319 318 318 318 318 320 323 325 327 327 327 327 325 323
302 302 301 300 300 300 299 298 297 296 295 294 294 295 295 295 294 295 295 295 296 297 298 300 302 303 304 304 305 305 306 306 306 307 307 308 309 309 310 310 311 311 312 313 315 316 316 316 317 317 317 318 319 319 319 319 317 316 317 318 320 319 319 318 318 319 321 323 325 326 327 327 326 324
302 301 301 300 300 299 298 297 297 296 296 297 297 297 296 295 295 295 295 295 295 295 296 297 299 300 301 303 304 304 305 305 306 306 307 307 308 309 309 310 311 311 311 312 314 315 315 315 315 316 316 317 317 318 318 319 319 317 315 315 317 319 319 319 319 319 319 321 323 325 326 326 326 325
302 301 300 300 299 299 298 298 298 298 299 299 299 298 296 296 296 296 296 296 296 296 296 296 297 297 298 299 301 302 303 304 304 305 306 306 306 307 307 307 308 310 310 310 311 313 313 313 314 315 315 316 316 316 316 316 316 316 315 313 314 316 318 318 318 319 319 320 321 323 324 325 326 325
301 300 299 299 298 299 299 299 299 300 300 299 298 297 296 296 296 297 297 297 297 298 298 298 298 298 298 298 299 299 300 301 302 303 304 304 304 305 305 305 306 307 308 309 309 310 311 312 312 313 314 314 315 315 316 315 315 314 314 313 312 313 316 318 318 318 319 319 320 321 322 323 324 325
300 299 298 298 297 298 299 299 299 299 298 297 296 296 295 295 296 297 298 298 298 299 299 299 299 299 299 299 299 299 299 300 300 301 302 302 302 303 303 303 304 304 305 306 307 308 309 310 311 311 312 313 313 314 314 315 315 314 314 313 312 311 314 317 318 318 319 320 321 321 322 322 323 323
299 299 299 299 299 299 299 300 299 297 296 295 295 295 295 295 296 297 298 298 298 298 298 298 298 299 299 299 299 299 299 299 300 300 300 300 301 301 302 302 303 303 303 303 304 306 307 307 308 309 310 311 312 313 313 313 314 313 312 312 311 310 312 316 318 318 318 319 320 321 321 322 322 323
300 300 300 299 300 300 300 299 298 296 296 295 295 295 295 296 296 297 297 298 298 298 298 297 297 297 297 297 297 298 298 298 299 299 299 299 299 300 300 301 302 302 303 303 304 305 306 306 307 308 309 310 310 311 312 312 313 313 312 311 310 309 309 313 316 318 318 318 318 320 320 321 322 323
301 300 300 299 299 299 299 298 297 296 296 296 296 295 295 296 296 297 296 297 297 297 297 297 297 297 297 296 297 297 297 297 297 298 298 298 298 298 299 300 300 301 302 302 303 304 305 306 306 307 308 309 309 310 311 312 312 312 312 311 310 308 307 309 312 316 317 317 317 318 319 320 321 321
301 301 300 299 299 298 298 297 297 296 296 296 296 296 295 295 296 296 296 296 296 296 296 297 297 297 297 297 296 296 297 297 297 297 297 297 297 298 298 299 299 300 301 301 302 303 303 304 305 306 307 308 308 309 311 311 311 311 311 310 309 308 307 307 308 312 314 315 316 316 317 317 319 320
300 300 299 299 298 298 298 297 297 297 296 296 296 296 295 295 295 295 295 294 294 295 295 295 295 295 295 296 296 296 296 296 296 296 297 297 297 297 297 298 298 299 300 300 301 302 302 303 304 305 306 307 307 308 310 310 310 310 309 309 308 308 308 308 308 309 311 313 315 315 315 315 316 318
298 298 298 298 297 297 297 297 297 296 296 296 296 296 295 294 294 294 293 293 292 292 292 293 293 293 294 294 294 295 295 295 296 296 296 296 296 297 297 297 298 298 298 299 299 300 301 302 303 304 305 306 306 307 309 309 309 308 308 308 308 308 308 309 310 310 311 313 314 315 315 315 316 317
297 297 297 298 298 297 297 297 296 296 296 296 295 295 294 294 293 293 292 292 291 291 291 292 292 292 293 293 293 294 294 295 295 295 296 296 296 296 297 297 297 297 298 298 298 299 299 300 301 302 304 305 306 307 308 308 307 307 308 308 308 308 308 308 310 311 312 313 314 315 315 315 316 316
296 296 297 297 297 296 296 295 295 295 295 294 294 294 293 293 292 292 291 291 291 291 291 291 292 292 292 293 293 293 294 294 295 295 295 295 296 296 296 296 297 297 297 297 298 298 298 299 300 301 302 303 304 305 306 308 307 307 307 308 308 308 307 307 308 310 311 311 313 314 313 313 313 312
294 295 296 296 295 295 294 294 294 294 294 294 293 293 292 292 291 291 291 291 291 291 291 291 292 292 292 292 293 293 293 294 294 294 295 295 295 295 296 296 296 296 297 297 297 297 298 298 299 299 300 301 302 303 304 305 306 306 307 307 308 308 307 307 308 309 310 310 310 311 311 310 309 307
293 294 294 294 294 294 294 294 294 294 293 293 292 292 291 291 291 291 291 292 292 292 292 292 292 292 292 292 293 293 293 293 294 294 294 295 295 295 295 296 296 296 296 297 297 297 297 297 298 298 299 300 301 302 302 303 305 305 306 306 307 307 307 307 308 309 310 309 309 309 309 308 307 305
293 294 294 294 294 294 294 293 293 293 292 292 292 292 292 292 292 292 292 292 292 292 292 292 292 293 293 293 293 293 293 293 294 294 294 295 295 295 295 295 295 296 296 296 296 296 297 297 297 297 298 299 299 300 301 302 303 305 305 305 306 307 307 307 308 309 309 308 308 308 307 306 305 303
293 294 294 294 294 294 293 293 292 292 292 292 292 292 292 292 292 292 292 292 292 292 292 292 292 293 293 293 293 293 294 294 294 294 294 295 295 295 295 295 295 296 296 296 296 296 296 296 297 297 297 298 299 299 300 301 302 303 304 304 306 306 307 307 308 308 307 307 307 306 305 303 302 301
293 294 294 294 294 294 293 293 292 292 292 292 292 292 292 292 292 292 292 292 292 292 292 292 292 292 293 293 293 293 294 294 294 294 294 294 295 295 295 295 295 295 295 295 295 295 295 296 296 296 297 297 298 299 299 300 301 302 303 303 304 305 306 306 307 307 306 305 304 304 302 301 301 300
293 294 294 294 294 293 293 293 292 292 292 292 291 291 291 292 292 292 292 292 292 292 292 292 292 292 292 292 293 293 293 293 294 294 294 294 294 294 294 294 294 294 294 294 294 295 295 295 295 296 296 297 297 298 299 299 300 301 301 301 302 303 304 305 306 306 305 304 303 301 300 300 300 299
293 293 293 293 293 293 292 292 292 292 291 291 291 291 291 291 291 291 291 291 292 292 291 291 291 291 291 292 292 292 292 292 293 293 293 293 294 294 294 294 294 294 294 294 294 294 294 295 295 296 296 297 297 298 298 299 299 299 300 300 301 302 303 304 304 305 303 302 301 300 298 298 298 298
293 293 293 293 292 292 292 291 291 291 291 291 291 291 291 291 291 291 291 291 291 291 291 291 291 291 291 291 291 291 291 292 292 292 292 293 293 294 294 294 294 294 294 294 294 294 294 294 295 295 296 296 297 297 298 298 298 298 299 299 300 302 303 303 303 303 301 300 300 299 298 296 296 296
293 293 292 292 292 292 292 291 291 291 291 291 291 291 291 291 291 291 291 291 290 290 290 290 290 290 290 290 291 291 291 291 291 292 292 293 293 294 294 294 294 294 294 294 294 294 295 295 295 295 296 296 296 297 298 299 299 299 299 300 301 302 302 302 301 301 299 298 298 298 298 296 295 295
292 292 292 292 292 291 291 291 291 291 291 291 291 290 290 290 290 290 290 290 290 290 290 290 290 290 290 290 290 290 290 291 291 292 292 293 293 293 294 294 294 295 295 294 294 295 295 295 295 295 296 296 296 297 298 299 299 299 299 300 301 301 301 301 300 299 297 296 296 297 297 296 294 293
292 292 292 291 291 291 291 291 291 291 291 290 290 290 290 290 290 290 290 290 290 290 290 290 290 290 290 290 290 290 290 291 291 291 292 292 293 293 293 294 295 295 295 295 295 295 295 295 295 295 296 296 296 297 298 298 299 299 299 300 300 300 300 300 300 298 296 295 295 295 296 295 294 293
292 291 291 291 291 291 291 290 291 291 290 290 290 290 290 290 290 290 290 290 290 290 290 290 290 290 290 290 290 290 290 291 291 291 292 292 293 293 293 294 294 294 294 295 295 295 295 295 295 295 295 296 296 297 298 298 299 299 300 300 300 300 300 300 299 298 296 295 295 295 294 294 294 293
291 291 290 291 290 290 290 290 290 290 290 290 290 290 290 290 290 290 291 291 291 290 290 290 290 290 290 290 290 291 291 291 291 291 292 292 293 293 293 294 294 294 294 294 295 295 295 296 296 296 295 296 296 297 298 298 299 299 299 299 299 300 300 300 300 299 298 296 295 295 294 294 293 292
291 290 290 290 290 290 290 290 290 290 290 290 290 290 291 291 291 291 291 291 291 291 291 291 291 291 291 291 291 291 291 291 291 291 292 292 293 293 294 294 294 294 294 294 295 295 295 296 296 296 296 296 296 296 297 297 298 298 298 298 298 298 298 299 299 300 299 298 296 295 294 293 292 292
291 290 290 290 290 290 290 290 290 290 290 290 291 291 291 292 291 291 291 291 291 291 291 291 291 291 291 291 291 291 292 292 292 292 292 292 293 293 293 294 294 294 294 295 295 296 296 296 296 296 296 296 296 297 297 297 297 297 297 297 297 297 297 297 297 298 298 298 297 296 295 293 292 292
291 290 290 290 290 290 290 290 290 290 290 290 291 292 292 291 291 291 291 291 291 291 291 291 291 291 291 292 291 291 291 292 293 293 293 293 293 293 293 294 295 295 295 295 295 296 296 296 296 297 297 297 297 297 297 297 297 298 297 297 296 296 296 296 295 295 295 295 296 296 296 295 294 293
290 290 290 290 290 290 290 290 290 290 290 291 292 292 292 291 291 291 291 291 291 291 292 292 292 292 292 292 292 292 292 292 293 293 293 293 294 294 294 294 295 295 295 295 295 296 296 296 296 297 297 297 297 297 297 297 297 297 297 296 296 295 295 294 294 294 293 293 293 294 294 294 294 294
290 290 290 290 290 290 290 290 290 290 291 291 291 292 292 292 292 292 292 292 292 292 292 292 292 292 293 293 293 293 293 294 294 294 294 294 294 294 295 295 295 295 296 296 296 296 296 297 297 297 297 297 297 297 297 297 297 296 296 295 295 294 294 293 293 292 292 291 292 293 293 293 293 293
Wind_Speed
8 9 8 7 6 6 6 5 5 5 5 5 4 5 6 7 9 10 10 10 9 9 9 9 7 6 6 7 10 11 9 13 15 12 11 12 13 15 17 18 19 21 23 25 25 24 24 24 25 26 28 30 31 31 31 30 31 31 30 29 29 29 28 27 27 27 27 27 27 27 26 25 24 23
8 8 9 9 8 8 8 7 6 6 6 5 4 5 6 7 8 9 11 12 11 10 10 9 10 10 9 7 9 10 9 13 17 15 15 16 16 18 20 21 22 23 23 24 24 24 24 25 27 27 29 30 31 32 33 34 34 34 33 32 31 30 29 29 29 28 28 28 28 28 27 27 27 26
6 7 8 9 8 9 10 9 9 10 8 7 6 5 6 7 8 9 11 14 12 10 10 11 12 14 15 13 14 15 15 17 19 19 19 19 18 20 22 23 24 24 23 24 25 25 25 25 27 28 29 31 32 33 34 35 36 37 37 35 35 34 32 31 31 31 29 28 28 28 29 29 29 28
5 6 8 8 8 9 9 7 8 10 9 10 10 8 6 7 8 9 10 14 15 13 12 14 14 13 14 16 18 19 18 17 17 17 17 17 17 19 20 19 20 20 21 23 25 27 27 27 27 27 28 29 31 33 34 35 37 38 39 38 38 37 36 34 34 34 32 30 29 29 30 30 31 30
6 6 6 7 9 10 9 6 5 6 7 9 10 9 8 7 7 8 10 13 15 14 13 14 14 14 14 15 16 16 16 16 16 16 15 16 17 18 18 17 18 18 19 20 22 25 27 28 29 29 29 29 30 32 33 34 36 37 38 39 39 40 39 37 37 37 35 32 30 31 30 30 31 32
7 8 6 7 10 11 10 9 5 4 6 6 6 7 8 9 9 10 10 12 15 16 15 15 15 14 14 14 14 14 15 17 17 17 17 17 17 18 18 18 18 18 19 20 22 24 25 27 28 29 29 30 30 31 32 33 35 36 38 39 39 40 40 39 40 40 38 36 34 32 31 30 31 34
8 10 9 8 11 12 12 10 7 6 6 6 6 8 9 10 11 11 11 13 15 17 17 16 15 14 14 15 15 15 16 17 17 18 18 18 17 18 19 19 19 19 21 22 24 25 25 25 26 28 29 29 30 30 32 33 34 35 37 38 39 39 39 39 40 40 40 41 39 36 32 31 33 35
9 11 10 9 11 12 11 10 8 6 6 7 8 9 9 10 11 10 11 13 14 16 18 18 17 17 17 18 17 16 16 17 17 17 17 17 17 17 18 18 18 19 22 23 24 25 25 24 25 27 29 29 29 29 30 32 33 34 35 37 38 38 37 37 38 39 41 43 44 42 37 33 34 36
10 11 11 10 10 11 11 9 7 7 9 10 10 10 10 10 11 12 12 13 14 16 18 20 20 19 19 18 18 17 17 17 17 16 16 16 17 17 17 18 18 19 22 24 24 25 26 26 25 26 28 29 30 29 29 30 31 31 33 34 36 37 37 37 37 39 41 43 46 47 43 38 36 36
12 12 11 11 11 11 11 10 10 10 12 13 12 12 12 12 12 14 14 15 15 17 19 20 20 20 19 19 18 17 16 17 17 17 17 17 17 17 17 17 17 18 20 22 23 23 24 24 24 24 25 28 29 29 29 29 30 30 30 31 33 34 36 36 37 38 40 43 45 47 47 45 40 36
13 13 12 12 12 12 12 12 12 13 14 14 13 12 12 12 13 14 15 15 16 17 18 19 19 19 18 18 18 17 16 17 17 17 17 17 15 13 14 14 14 15 17 20 22 23 23 24 23 23 24 26 29 30 30 29 30 30 30 30 31 32 34 35 36 36 37 41 42 42 46 51 48 40
14 14 13 13 13 14 14 14 14 15 16 16 15 13 13 14 14 15 15 16 16 17 18 18 18 19 18 18 18 17 15 16 16 15 15 16 16 15 16 18 18 17 18 19 20 21 23 24 24 24 25 23 25 29 31 31 31 31 31 31 31 31 31 33 35 36 36 38 40 39 41 48 50 46
15 14 14 15 15 15 16 16 17 17 16 16 16 16 16 16 17 17 17 17 17 17 18 19 18 19 18 18 17 17 15 15 16 16 17 19 20 20 21 22 20 19 19 19 19 19 20 22 22 22 22 21 21 23 28 31 32 32 32 32 32 32 31 31 32 34 36 36 38 38 36 39 46 50
15 14 14 16 17 18 19 19 19 18 16 16 17 17 17 17 18 19 20 20 20 19 19 20 19 20 20 19 18 18 18 17 18 19 19 20 21 20 21 21 19 16 17 19 20 20 19 20 20 20 20 21 22 23 25 29 32 34 34 34 34 33 32 32 32 33 35 35 35 36 34 36 43 48
14 14 14 14 17 19 21 20 19 19 18 17 18 18 18 18 19 20 22 23 23 23 23 22 21 21 22 21 20 20 19 18 19 19 19 19 19 19 20 21 18 14 13 16 18 19 18 18 20 20 19 20 21 22 25 27 29 31 34 35 35 35 34 33 33 32 34 34 34 34 33 33 37 42
11 11 11 12 15 18 18 17 17 19 19 18 18 20 22 24 24 23 23 24 24 25 26 26 25 24 24 23 21 19 18 19 19 18 19 19 19 19 20 21 19 16 15 17 19 20 20 20 21 21 20 20 22 25 27 28 28 31 33 34 34 35 35 35 35 34 33 34 34 34 33 32 32 33
11 11 12 13 14 15 16 16 15 14 13 14 17 20 23 25 26 26 26 26 26 26 27 29 29 29 28 27 24 21 20 21 20 20 20 20 21 22 22 22 21 19 17 19 21 22 20 19 20 22 21 20 22 28 31 31 32 34 34 34 33 33 35 36 35 35 34 34 35 35 35 34 33 32
14 14 14 13 13 12 13 12 11 11 11 13 16 19 21 23 24 25 26 27 28 28 28 29 29 28 27 27 27 26 26 26 25 23 22 22 23 25 25 26 26 25 23 23 23 25 23 19 20 22 21 19 21 28 33 32 32 34 33 33 33 31 33 35 35 35 35 34 35 36 36 37 36 35
15 14 14 14 14 13 13 13 14 15 16 18 20 22 24 26 25 24 23 23 25 26 26 27 27 25 23 23 23 23 23 26 27 27 28 28 28 29 28 28 30 30 29 27 27 29 27 22 21 23 22 20 22 28 33 34 34 36 35 35 34 33 33 34 34 34 35 35 35 35 36 37 37 38
13 13 12 12 12 12 12 14 18 20 22 24 25 26 28 28 26 23 22 22 24 26 27 28 28 28 27 27 28 28 28 29 29 30 32 33 33 31 29 28 27 26 26 24 25 29 29 24 24 26 24 22 23 27 32 34 34 36 38 37 35 33 33 34 34 33 33 33 34 34 35 36 37 39
12 12 13 12 12 13 13 16 22 25 26 27 27 27 30 29 26 22 21 22 24 25 28 30 30 31 31 32 33 33 34 36 35 36 38 36 33 31 30 29 27 24 23 20 20 25 28 24 24 26 25 24 24 25 28 32 32 33 36 37 33 30 31 33 34 33 31 31 31 32 32 34 36 37
11 12 14 15 15 15 16 19 24 27 28 29 29 30 31 30 25 23 23 23 23 24 25 27 29 30 30 31 32 32 31 33 35 40 44 42 35 32 32 30 29 27 25 21 19 24 26 22 22 23 23 24 25 23 25 31 33 32 33 36 35 31 31 32 34 34 33 31 29 29 28 29 31 32
10 11 13 15 17 17 18 20 24 27 29 31 32 33 33 31 27 24 24 24 23 23 24 26 27 28 28 28 29 29 28 27 27 32 40 41 38 37 36 33 31 30 26 20 18 23 25 22 22 23 22 23 24 21 23 29 34 32 31 34 36 32 29 30 32 33 34 33 31 29 27 25 26 28
10 10 11 15 19 20 21 24 27 29 32 33 35 36 37 37 33 28 27 28 29 29 31 32 32 30 30 29 28 27 27 26 25 26 29 31 31 33 36 35 34 34 29 20 16 21 23 21 21 22 23 24 23 21 22 27 32 32 29 28 31 30 26 26 29 30 31 33 32 30 27 25 25 26
10 10 10 16 21 22 24 27 30 32 34 35 37 38 39 40 39 37 37 39 39 35 33 34 33 30 28 28 27 26 26 26 25 24 25 25 25 25 28 31 33 35 33 25 21 24 26 24 21 21 22 24 24 22 23 24 26 28 26 24 27 29 25 23 24 26 28 29 30 30 28 26 25 26
11 11 11 16 22 24 27 30 31 33 35 37 39 41 41 41 40 39 38 38 35 30 28 29 29 26 24 24 24 24 24 24 23 23 22 23 23 24 25 26 28 30 29 23 21 24 27 26 23 21 21 23 22 22 23 22 21 24 25 24 26 29 27 24 22 23 25 26 28 28 27 26 25 24
12 12 13 16 22 25 27 28 30 32 35 36 37 37 36 34 32 30 30 27 24 22 22 23 24 23 23 23 23 23 23 23 22 22 21 21 22 25 27 27 29 30 28 25 23 23 25 27 25 22 23 23 23 22 23 22 21 22 23 24 27 28 27 24 23 22 22 24 25 25 24 23 21 19
12 13 15 17 21 23 25 26 27 27 27 26 26 26 25 24 23 23 22 20 19 19 20 21 23 23 23 23 23 22 22 22 22 21 22 22 23 24 25 26 28 29 29 27 26 24 25 28 28 25 24 24 24 25 24 22 22 23 22 22 25 26 24 22 22 21 20 21 22 23 22 21 19 17
13 15 17 20 23 24 24 23 22 20 19 19 20 21 20 21 21 19 18 17 18 20 21 22 23 24 24 24 24 23 23 24 24 24 23 24 24 24 24 25 26 28 29 29 28 27 26 28 30 30 28 26 26 26 25 23 24 25 22 20 21 22 21 20 21 20 19 19 20 21 21 21 19 18
17 19 22 23 23 22 21 20 18 17 17 18 18 18 18 19 19 17 16 18 19 20 21 22 23 23 23 24 24 25 25 25 25 24 24 24 24 22 21 23 25 25 25 26 27 28 28 29 31 33 33 31 29 28 26 24 25 25 21 18 19 20 19 19 20 20 20 19 20 20 20 19 19 19
17 20 21 19 18 18 19 18 17 18 19 18 17 17 18 18 18 17 18 20 22 23 25 26 26 26 25 25 26 26 26 26 25 24 23 24 23 21 20 21 23 23 23 24 26 28 30 30 31 32 33 33 32 31 28 26 27 27 21 18 19 20 19 18 19 21 21 21 21 20 19 18 19 20
16 17 16 14 14 15 17 17 16 16 17 16 16 17 18 18 18 18 20 22 23 25 26 26 27 27 26 26 27 26 26 26 25 23 23 24 24 23 23 25 27 29 30 31 31 31 31 32 31 32 33 35 35 33 31 29 30 30 24 19 19 19 18 18 18 19 21 21 21 20 19 19 20 21
16 14 13 12 13 14 15 15 15 16 16 17 18 18 19 19 19 19 20 21 21 22 24 26 29 30 30 30 30 29 29 30 28 26 27 28 28 28 29 32 35 35 34 33 33 31 31 31 31 31 32 33 35 36 34 34 33 30 25 22 22 22 21 20 18 18 20 21 21 21 21 22 22 22
14 13 12 13 14 14 15 15 15 16 17 18 19 19 19 20 20 21 22 22 23 24 26 29 31 32 32 32 32 32 32 32 31 31 32 32 32 33 34 37 38 37 34 33 31 30 29 30 30 30 30 31 32 35 37 38 38 33 28 25 24 24 24 22 19 18 18 20 22 24 25 24 23 22
13 12 13 14 14 14 14 15 15 16 18 19 20 21 21 21 21 22 23 24 25 26 28 30 31 31 32 33 33 32 32 31 31 31 32 33 33 33 35 36 37 36 33 31 30 29 28 28 27 28 29 30 31 31 33 37 39 37 33 29 26 24 23 22 20 19 19 20 23 25 26 25 24 23
13 13 13 13 13 14 14 14 15 16 18 20 21 22 23 23 23 23 24 25 26 27 28 30 31 32 33 33 33 33 32 32 32 32 33 33 32 32 33 34 34 33 30 30 30 28 25 25 25 26 27 28 29 28 28 30 33 35 32 28 25 24 23 20 19 19 20 21 23 25 26 26 25 24
12 13 13 13 14 14 15 16 17 18 19 21 22 23 24 24 24 24 26 27 27 27 28 29 30 30 31 31 31 31 31 32 32 31 32 32 31 31 32 32 32 31 30 30 29 26 23 23 25 26 27 27 28 28 26 23 24 27 28 27 25 24 22 20 19 20 21 22 23 25 26 27 26 24
13 13 13 13 14 15 16 17 18 19 20 22 24 25 25 24 25 27 28 29 29 28 28 28 28 28 29 29 29 29 30 30 30 29 29 29 29 30 31 31 30 30 29 28 27 25 24 24 26 26 26 27 27 27 25 21 19 21 24 25 24 23 20 19 20 21 22 23 24 24 25 26 25 24
13 13 13 14 15 15 17 18 18 18 21 23 25 25 25 26 27 28 28 29 29 28 28 28 28 27 27 27 27 28 29 29 30 29 29 28 28 29 30 30 29 28 27 26 25 23 23 24 26 27 27 27 26 23 20 17 17 18 20 21 23 22 20 20 21 23 24 25 26 27 27 25 23 23
12 12 13 14 15 15 17 17 17 19 22 24 25 25 26 27 28 28 28 29 29 28 27 26 26 25 25 25 25 26 27 28 28 28 28 28 28 29 29 29 28 26 25 24 23 22 22 23 23 23 24 24 24 21 17 14 14 17 19 20 20 20 19 18 20 22 24 27 29 29 29 27 26 28
11 12 13 13 14 15 16 16 18 20 24 26 27 28 28 28 28 28 28 28 28 28 26 24 23 23 24 23 23 24 26 27 27 27 27 27 28 29 29 29 28 26 24 23 22 22 21 20 18 17 18 19 20 21 20 17 15 18 21 21 20 17 15 15 16 17 19 25 30 31 30 29 30 32
11 12 12 12 13 15 16 17 20 23 26 28 29 29 29 28 27 28 28 28 28 27 26 24 23 22 22 22 21 21 22 24 24 25 25 26 26 27 27 26 25 24 22 22 21 20 19 17 14 13 15 17 18 20 21 21 19 19 21 23 22 20 18 18 17 16 17 21 26 30 31 32 34 35
11 12 12 13 15 17 18 20 23 26 27 28 29 29 29 29 30 30 30 30 29 27 26 24 23 21 21 20 19 19 20 21 21 22 22 22 23 24 24 23 22 20 20 20 19 18 17 16 14 13 14 16 18 20 21 22 22 22 23 25 26 25 22 21 19 19 21 24 27 30 32 33 34 35
11 11 12 14 17 20 22 23 26 27 27 28 28 29 30 30 31 31 30 29 29 27 25 24 22 20 19 18 18 18 19 19 19 20 20 20 19 20 20 19 18 17 17 18 19 18 16 15 15 15 15 15 17 20 22 23 24 25 26 27 27 27 25 24 23 23 25 28 29 30 30 30 29 30
10 12 13 16 19 22 23 26 27 28 28 27 28 29 30 30 31 32 31 30 29 28 26 24 21 18 16 16 16 17 17 16 16 17 17 16 15 15 15 15 15 15 13 14 17 19 18 16 15 14 14 15 18 20 23 24 26 27 28 29 29 28 27 27 28 29 29 29 28 28 28 26 25 25
Wind_Direction
39 35 28 27 26 10 2 355 337 324 307 295 288 295 299 298 303 307 306 304 302 307 293 266 271 305 301 284 271 266 275 278 278 282 281 278 278 274 271 267 258 250 248 250 251 251 247 243 243 244 244 245 246 248 250 252 254 256 255 254 252 251 253 251 248 250 252 251 248 246 247 250 252 253
35 33 26 22 19 4 357 355 350 347 337 325 315 304 303 296 292 296 296 295 296 303 301 282 273 272 270 283 287 277 274 272 271 271 268 264 264 264 264 263 261 255 248 247 248 248 245 243 244 245 245 245 246 248 250 251 253 254 255 255 254 253 253 248 246 249 251 249 246 244 244 247 249 251
18 19 19 21 19 6 1 357 348 347 343 338 334 308 292 290 287 286 288 288 288 292 297 294 284 273 266 267 269 266 265 270 274 275 273 272 269 268 266 264 265 264 256 248 245 245 244 243 245 246 246 246 246 247 249 250 252 253 254 255 255 254 253 247 244 248 250 247 245 242 242 244 245 247
349 351 356 2 6 5 8 2 341 339 338 337 339 327 304 293 285 283 283 282 285 289 289 287 289 289 285 279 275 273 276 280 283 283 282 280 276 273 274 273 273 274 268 258 249 246 245 245 247 248 249 249 249 249 250 250 251 252 253 254 255 254 253 249 246 247 248 247 245 242 244 247 244 241
327 337 335 331 340 352 359 359 340 323 318 324 330 323 311 301 289 284 283 284 287 290 290 289 289 288 288 287 286 286 284 281 278 276 275 276 277 277 278 277 276 279 280 275 266 258 253 251 250 251 251 251 251 251 252 252 253 254 254 254 255 254 254 252 249 246 245 245 245 244 247 250 244 239
308 324 323 311 322 333 339 347 349 306 290 298 299 291 286 285 286 285 281 284 288 289 291 292 292 292 292 290 287 286 284 283 282 279 275 274 274 275 275 274 275 276 276 274 272 269 264 259 255 253 252 252 252 251 252 252 253 254 255 255 256 256 256 255 254 251 247 246 245 245 248 250 244 239
284 307 315 308 313 324 331 335 333 308 297 295 283 279 279 280 286 287 282 284 288 291 296 299 296 295 293 289 288 287 285 285 286 285 285 283 279 276 273 273 274 273 271 270 271 272 270 266 260 257 255 255 254 254 253 252 252 252 253 255 256 258 258 257 258 257 253 249 246 244 247 249 245 240
266 287 297 297 302 313 321 322 320 305 289 287 287 286 287 288 290 289 285 286 288 290 293 297 296 295 294 293 293 291 288 287 286 286 286 286 284 281 277 275 274 272 270 271 272 273 274 272 266 261 259 259 259 258 257 255 254 253 253 254 255 257 258 259 259 259 258 255 250 245 243 246 247 243
265 274 281 283 290 300 306 308 303 285 276 283 289 287 286 286 284 281 277 278 282 286 288 292 295 295 295 294 293 291 290 288 287 285 284 283 283 281 277 273 269 267 268 269 270 271 273 275 272 266 260 258 259 259 259 258 257 256 256 256 256 256 258 259 260 260 260 259 255 249 243 241 245 245
270 272 273 275 281 289 294 293 288 285 286 291 292 290 290 289 285 282 282 282 283 285 286 289 292 294 294 293 292 292 291 288 287 287 286 287 287 285 282 279 274 270 271 273 274 274 275 278 278 272 264 258 257 258 259 259 258 257 258 258 258 257 258 259 261 261 262 261 259 255 248 241 240 244
269 272 271 274 282 286 287 288 288 290 292 293 292 291 291 291 290 287 287 287 286 285 285 286 287 290 291 290 289 290 290 286 286 288 290 291 292 289 284 281 278 274 272 274 278 281 283 285 284 280 275 266 259 256 256 258 258 257 257 259 260 259 258 260 261 263 264 263 262 261 255 246 240 240
266 271 273 275 281 285 287 289 291 292 292 291 290 287 283 282 285 287 288 288 287 286 286 286 286 287 288 287 287 290 290 287 286 287 290 290 290 285 278 275 275 274 273 273 276 279 281 282 284 285 284 277 265 257 253 254 256 256 256 258 259 260 261 261 261 262 263 262 260 259 258 254 247 241
269 273 277 280 283 288 293 296 297 297 296 294 292 289 287 285 285 285 285 285 286 286 285 285 286 286 285 285 287 288 287 286 286 288 287 288 289 289 286 284 282 277 274 272 269 269 271 276 281 284 284 282 277 268 258 253 253 254 255 257 259 259 260 261 261 261 262 263 261 257 254 256 252 244
272 277 281 285 289 294 298 301 302 302 300 296 293 290 287 286 287 287 286 284 283 283 283 284 285 285 284 284 285 286 285 286 286 287 287 288 289 290 290 289 288 284 280 276 271 266 266 269 271 271 271 274 277 277 269 262 258 255 253 255 258 259 260 261 261 261 262 263 263 258 253 253 252 248
272 280 283 284 289 296 302 304 306 306 305 302 298 295 293 291 291 291 290 288 285 281 280 280 280 281 282 283 284 285 287 289 288 287 288 287 288 289 288 288 289 286 282 282 278 269 264 264 266 266 265 266 270 270 268 269 268 262 257 254 255 258 260 260 260 261 261 262 261 260 256 253 252 251
259 267 270 272 281 292 297 300 301 304 308 309 304 302 302 302 302 300 297 294 291 287 284 280 277 276 276 278 282 285 287 289 288 287 284 283 283 283 282 283 284 281 278 283 284 276 268 265 265 265 262 261 263 261 258 261 264 264 263 260 255 254 256 258 259 259 259 260 260 260 258 255 253 252
252 255 258 263 274 283 289 295 299 300 302 302 300 302 304 306 307 307 304 300 296 293 288 284 281 277 274 272 271 272 273 276 281 286 285 282 281 281 278 278 279 279 276 279 283 280 272 267 265 264 261 259 262 262 260 259 261 262 264 266 262 256 254 255 256 258 258 258 258 259 259 257 255 253
266 266 264 265 271 275 278 282 281 275 275 280 287 293 296 298 300 300 298 298 297 294 291 287 285 283 279 274 270 268 266 266 269 275 277 276 275 274 274 273 270 265 261 260 269 275 271 266 267 266 261 257 259 264 265 264 264 265 266 268 268 262 255 253 254 256 257 257 256 256 256 257 256 255
271 269 269 274 280 279 276 271 267 269 276 281 285 288 290 294 296 293 288 286 286 286 285 284 285 286 285 280 274 272 268 264 261 261 261 261 261 263 269 274 271 267 262 256 260 269 270 266 267 267 264 261 259 262 265 264 264 266 266 266 268 265 257 253 253 255 256 257 256 254 254 255 256 255
264 262 262 270 276 274 271 269 270 277 285 289 290 292 295 299 299 292 284 280 278 277 277 276 275 274 272 268 264 263 262 261 260 260 260 258 259 263 270 275 274 273 272 265 260 265 268 266 266 267 266 264 260 260 266 268 266 266 268 267 266 263 257 252 251 253 255 256 256 254 252 252 253 254
256 257 256 261 265 264 265 270 276 285 292 295 294 295 298 300 296 290 286 283 278 276 276 277 277 276 275 273 269 265 261 260 260 261 262 261 262 266 269 271 271 272 272 269 263 264 266 265 265 267 267 264 259 258 264 268 268 266 267 269 267 264 259 253 250 250 251 254 254 253 250 250 251 253
255 261 268 275 277 274 273 277 284 290 294 295 294 295 297 297 293 290 290 286 282 280 279 280 282 282 282 282 280 276 270 264 259 257 259 260 261 263 263 266 271 272 268 265 261 263 266 266 264 266 268 265 261 256 256 262 266 265 265 268 270 269 265 257 250 247 248 251 253 253 252 252 252 252
262 266 278 286 287 283 280 280 283 286 288 290 291 292 293 292 290 290 290 287 284 281 277 274 274 274 275 277 279 280 279 276 267 258 256 256 257 258 259 261 266 269 267 263 260 262 267 268 265 264 266 266 264 257 250 251 256 259 265 272 277 278 273 261 250 246 246 248 251 254 255 256 256 254
270 275 284 286 283 282 282 282 282 284 285 286 287 288 288 288 288 287 285 282 280 277 274 272 270 269 268 268 268 269 271 272 270 264 259 256 254 255 257 258 259 261 263 260 256 260 266 269 267 263 262 264 265 264 257 251 251 257 265 273 279 283 281 266 252 246 246 246 247 250 253 256 257 256
277 283 286 282 280 279 279 279 281 282 283 284 285 286 286 287 287 286 284 283 282 279 276 275 274 273 271 270 268 266 266 265 264 263 261 259 256 253 254 255 255 257 260 259 254 255 260 266 271 268 263 261 261 265 267 262 261 266 270 270 275 281 284 274 259 250 246 245 243 242 244 247 250 251
280 283 285 280 278 278 279 280 282 283 284 284 284 284 285 286 286 285 284 283 281 278 276 276 275 274 272 272 270 267 267 265 263 261 259 258 256 254 253 253 254 256 259 257 252 253 257 262 269 270 267 262 260 263 268 268 267 271 271 269 270 274 279 278 270 259 249 244 240 237 236 237 240 243
287 287 282 276 276 279 281 281 280 279 280 280 280 281 282 283 285 285 284 282 279 276 275 273 272 271 270 270 270 268 267 266 264 262 260 258 257 256 254 253 254 257 260 259 255 254 257 260 263 264 264 264 264 266 269 272 271 269 268 268 267 269 274 275 270 263 254 244 238 235 232 231 232 232
294 289 285 285 290 293 291 289 287 286 286 286 285 286 289 291 294 292 287 281 278 276 274 272 272 271 270 269 269 268 268 267 266 264 262 261 260 259 259 258 257 258 260 260 256 253 254 257 259 260 261 261 264 266 268 273 275 268 262 262 263 264 268 268 263 260 255 246 238 233 228 225 221 215
310 310 310 310 309 307 305 304 304 303 302 301 300 299 301 302 301 295 286 280 279 276 274 273 272 272 271 270 269 270 270 269 267 264 263 262 260 257 257 258 258 257 257 256 254 252 251 252 253 253 254 253 257 262 263 267 274 270 259 254 260 262 262 259 253 250 248 242 235 230 224 220 214 206
326 323 320 317 315 317 319 317 314 310 310 312 310 308 307 304 301 295 287 283 281 278 277 277 275 274 274 272 271 271 270 268 267 264 262 261 259 257 256 258 259 257 255 253 251 250 250 250 250 250 250 250 251 255 255 255 265 268 254 244 255 263 261 255 249 244 241 234 228 224 220 214 209 202
321 317 317 318 323 328 326 319 314 314 316 316 313 310 308 303 298 293 286 283 281 280 279 280 279 277 276 275 276 274 270 267 265 262 260 259 259 257 257 257 256 256 256 256 255 253 250 249 249 248 249 248 248 250 249 247 255 261 250 238 251 258 253 251 250 245 237 227 220 216 211 207 204 198
321 323 329 332 329 324 317 312 312 312 310 308 306 305 303 298 294 291 287 284 282 279 279 279 279 277 276 275 275 272 269 266 263 260 258 259 259 257 255 255 257 261 264 265 265 262 257 254 251 249 248 247 246 247 246 244 249 257 253 249 259 262 251 247 251 247 236 223 213 205 199 198 198 197
334 341 345 334 321 316 313 311 310 309 308 307 306 304 302 299 297 294 290 287 285 282 280 279 278 277 276 274 272 269 268 267 266 263 262 262 262 260 258 260 263 266 269 270 269 267 263 258 255 252 250 248 245 244 243 242 246 254 257 260 269 271 260 249 246 246 238 223 208 197 191 192 194 193
351 355 342 326 320 318 315 312 311 311 311 309 307 306 303 300 296 291 288 286 284 280 277 275 274 275 274 274 273 271 270 270 268 267 267 268 268 265 262 263 266 267 268 268 267 265 261 257 253 252 252 252 249 246 243 243 246 252 258 261 265 266 258 247 241 241 235 220 206 194 185 185 189 189
8 352 330 323 321 316 313 312 312 312 311 310 308 307 304 301 297 292 290 290 288 283 278 275 274 274 273 273 273 272 272 272 271 271 273 273 272 268 265 264 264 265 264 263 263 263 261 257 253 250 250 254 254 251 246 243 244 247 252 255 256 253 247 241 237 232 222 213 207 198 185 178 179 183
1 338 325 322 319 315 314 313 310 309 310 309 307 304 301 300 298 295 296 299 296 288 283 280 278 277 277 277 276 275 273 272 272 274 275 275 273 271 268 265 264 262 259 258 259 260 259 255 250 247 247 251 254 253 249 244 241 242 243 243 243 241 237 233 228 223 215 206 202 198 188 177 174 179
341 330 325 320 317 316 314 311 310 309 308 307 306 303 300 299 298 299 304 307 304 298 294 290 286 283 281 280 280 278 276 275 274 274 273 273 272 270 267 265 265 263 259 257 258 256 250 247 245 242 242 246 249 250 249 245 241 238 235 234 235 234 230 225 217 212 207 200 195 193 189 180 173 175
334 331 328 321 319 316 313 311 310 309 308 310 310 307 304 303 303 306 310 313 311 309 305 300 295 291 287 284 281 278 275 274 273 271 270 269 268 266 265 265 266 265 262 261 259 254 247 244 243 240 239 242 246 247 245 240 232 226 223 226 230 228 223 219 214 207 200 193 189 187 187 184 178 172
335 335 330 323 320 317 313 312 309 306 308 312 312 309 307 306 308 311 314 316 317 315 310 304 299 295 290 286 282 277 273 271 269 268 267 266 264 264 266 267 266 263 259 257 257 252 246 245 244 241 238 239 241 240 237 233 227 218 213 218 226 229 226 220 215 207 197 191 188 185 182 180 174 164
338 335 329 325 322 318 315 312 309 307 310 313 315 314 314 314 315 317 319 320 320 318 312 305 301 297 292 288 285 281 276 273 270 268 267 264 261 261 264 266 265 260 255 254 254 251 247 248 249 245 242 242 241 238 236 238 234 224 219 220 226 232 236 232 224 215 203 196 193 189 182 174 165 159
338 333 329 327 325 322 320 318 316 316 319 322 324 324 323 322 322 322 323 324 323 320 316 310 304 300 295 289 286 282 277 272 269 268 266 265 262 261 262 264 264 259 253 252 251 249 248 251 253 249 243 241 238 234 235 236 229 218 215 215 213 216 226 235 237 234 223 208 197 186 177 169 163 162
335 332 332 331 330 328 328 328 327 326 327 329 331 330 328 327 328 328 328 328 327 325 322 315 309 303 298 292 288 285 280 274 269 266 264 263 263 264 264 264 261 256 250 247 246 247 250 252 250 241 233 229 225 226 229 230 224 213 205 201 196 196 204 213 220 228 230 220 205 191 180 170 165 166
335 335 334 334 337 337 335 334 333 332 331 333 334 335 334 332 331 332 331 331 332 330 326 319 314 308 302 298 295 290 285 280 275 272 269 265 263 263 264 263 259 253 246 242 242 245 249 249 242 231 225 222 222 222 222 220 216 209 200 191 186 186 192 199 203 207 207 204 201 196 189 181 177 176
338 337 335 339 342 341 339 339 338 336 335 336 337 338 338 336 335 336 336 337 337 335 330 325 320 313 307 302 298 292 287 283 278 275 272 269 265 262 262 261 257 251 246 243 241 240 241 242 238 233 230 229 225 220 216 211 205 199 193 188 183 182 184 185 187 190 190 189 189 190 188 185 185 183
338 338 341 345 345 342 341 343 342 339 338 341 341 340 340 340 340 340 342 342 341 338 334 330 325 317 309 303 297 292 288 286 280 273 269 266 261 258 256 251 246 247 248 242 234 232 235 239 237 232 230 226 219 213 211 208 200 191 185 180 178 177 176 175 176 176 175 175 179 183 184 184 184 177